Location: ????????
(60.4333°N, 46.4710°E)
Time: 18:16:48
(UTC+00:00)

NOSS 3-3 (A) - Pass Details

Date: 25 November 2020
Orbit: 819 x 1393 km, 63.4° (Epoch: 14 January)

Event Time Altitude Azimuth Distance (km) Brightness Sun altitude
Rises 12:48:21 0° 269° (W) 3,620 8.1 -5.3°
Reaches altitude 10° 12:50:47 10° 272° (W) 2,744 7.3 -5.5°
Maximum altitude 12:57:16 70° 356° (N) 1,158 4.3 -6.2°
Drops below altitude 10° 13:04:49 10° 80° (E) 3,167 6.1 -7.0°
Enters shadow 13:06:08 - 82° (E) 3,628 6.4 -7.1°
